Temperature
21 20 20 20 20 19 19 19 18 18 18 18 18 18 18 17 17 17 17 17 17 17 16 16 16 16 16 16 15 15 15 15 15 14 14 14 14 14 14 14 14 14 14
21 20 20 20 19 19 19 19 18 18 18 18 18 18 18 17 17 17 17 17 17 17 16 16 16 16 16 16 15 15 15 15 15 14 14 14 14 14 13 13 13 13 13
20 20 20 19 19 19 19 18 18 18 18 17 17 17 17 17 17 17 17 17 17 17 16 16 16 16 16 15 15 15 15 15 14 14 14 14 14 13 13 13 13 13 13
20 20 19 19 19 19 18 18 18 18 17 17 17 17 17 17 17 17 17 17 17 17 16 16 16 16 15 15 15 15 15 15 14 14 13 13 13 13 13 13 13 13 13
19 19 19 19 18 18 18 18 18 17 17 17 17 17 17 17 17 17 17 16 16 16 16 16 16 16 15 15 15 15 15 14 14 14 13 13 13 13 13 12 12 12 12
19 19 18 18 18 18 18 18 18 17 17 17 17 17 17 17 16 16 16 16 16 16 16 16 15 15 15 15 15 14 14 14 14 13 13 13 13 13 12 12 12 12 12
19 18 18 18 18 18 17 17 17 17 17 17 17 17 17 16 16 16 16 15 15 15 15 15 15 15 15 14 14 14 14 14 13 13 13 13 13 13 12 12 12 12 12
19 18 18 18 18 17 17 17 17 17 17 17 17 16 16 16 16 16 16 15 15 15 15 15 15 14 14 14 14 14 14 13 13 13 13 13 12 12 12 12 12 12 12
18 18 18 18 17 17 17 17 17 17 17 16 16 16 16 16 16 16 15 15 15 15 14 14 14 14 14 14 14 14 13 13 13 13 13 12 12 12 12 12 12 11 11
18 18 18 17 17 17 17 17 17 16 16 16 16 16 16 16 16 15 15 15 14 14 14 14 14 14 14 13 13 13 13 13 13 12 12 12 12 12 12 12 11 11 11
17 17 17 17 17 17 17 16 16 16 16 16 15 15 15 15 15 15 15 14 14 14 14 14 14 13 13 13 13 13 13 13 12 12 12 12 12 11 11 11 11 11 11
17 17 17 16 16 16 16 16 16 16 15 15 15 15 15 15 15 15 14 14 14 14 14 13 13 13 13 13 13 12 12 12 12 12 11 11 11 11 11 11 11 11 10
16 16 16 16 15 15 15 15 15 15 15 15 15 15 15 15 15 14 14 14 13 13 13 13 13 12 12 12 12 12 12 12 12 12 11 11 11 11 10 10 10 10 10
15 15 15 15 15 15 15 15 14 14 14 14 14 14 14 14 14 14 14 13 13 13 13 12 12 12 12 12 12 12 11 11 11 11 11 11 11 10 10 10 10 10 9
15 15 15 15 15 14 14 14 14 14 14 14 14 14 14 13 13 13 13 13 13 12 12 12 12 11 11 11 11 11 11 11 11 11 11 10 10 10 10 9 9 9 9
14 14 14 14 14 14 14 13 13 13 13 13 13 13 13 13 13 12 12 12 12 12 11 11 11 11 11 11 11 11 11 11 10 10 10 10 10 9 9 9 9 9 9
14 14 13 13 13 13 13 13 13 12 12 12 12 12 12 12 12 12 12 11 11 11 11 11 11 11 10 10 10 10 10 10 10 10 10 9 9 9 9 9 9 8 8
13 13 13 13 13 13 13 13 12 12 12 12 12 12 12 12 11 11 11 11 11 11 10 10 10 10 10 10 9 9 9 9 9 9 9 9 9 9 8 8 8 8 8
13 13 13 13 12 12 12 12 12 11 11 11 11 11 11 11 11 11 10 10 10 10 10 10 10 10 9 9 9 9 9 9 9 8 8 8 8 8 8 8 8 8 7
12 12 12 12 12 12 12 11 11 11 11 11 11 11 11 10 10 10 10 10 10 10 10 9 9 9 9 9 9 8 8 8 8 8 8 8 8 7 7 7 7 7 7
12 12 12 12 12 11 11 11 11 11 11 11 11 10 10 10 10 10 10 10 9 9 9 9 9 9 9 8 8 8 8 8 8 8 8 7 7 7 7 7 7 7 7
12 12 12 11 11 11 11 11 11 10 10 10 10 10 10 10 10 9 9 9 9 9 9 9 9 8 8 8 8 8 8 8 8 7 7 7 7 7 7 7 7 7 6
11 11 11 11 11 11 10 10 10 10 10 10 10 10 10 9 9 9 9 9 9 8 8 8 8 8 8 8 8 7 7 7 7 7 7 7 7 6 6 6 6 6 6
11 11 11 11 11 11 10 10 10 10 10 10 9 9 9 9 9 9 9 8 8 8 8 8 7 7 7 7 7 7 7 7 7 7 7 6 6 6 6 6 6 6 6
10 10 10 10 10 10 10 10 10 9 9 9 9 9 9 9 8 8 8 8 8 8 7 7 7 7 7 7 7 7 6 6 6 6 6 6 6 6 6 6 6 6 6
10 10 10 10 10 10 10 10 9 9 9 9 9 9 9 9 8 8 8 8 8 7 7 7 7 7 7 7 6 6 6 6 6 6 6 6 6 6 5 5 5 5 5
Wind_Speed
6 5 5 5 5 4 4 5 4 3 4 4 4 3 3 3 4 4 4 5 5 4 4 4 4 4 3 3 3 3 3 3 4 3 2 1 1 1 1 0 0 1 0
6 6 5 4 4 4 5 5 4 4 4 5 4 4 4 4 4 5 5 5 6 5 5 5 5 4 4 3 3 3 3 3 3 4 2 2 2 2 1 1 0 0 1
5 5 5 5 5 4 4 4 4 5 5 5 5 5 5 4 4 5 5 5 6 6 6 6 5 5 4 3 3 3 3 3 3 3 2 1 1 1 1 1 1 1 1
5 5 6 6 6 5 4 4 4 4 5 6 5 5 5 5 5 5 5 5 5 5 5 5 5 5 5 5 4 4 4 3 3 3 2 1 1 1 1 1 1 1 1
5 5 5 5 4 4 4 4 5 5 5 5 5 5 5 5 5 5 5 5 5 4 4 4 5 5 6 5 4 4 5 4 3 3 3 2 2 2 2 2 2 2 2
4 4 4 4 3 3 4 4 4 4 4 4 5 5 5 5 6 7 5 5 5 5 4 4 3 4 5 6 6 6 6 5 5 4 3 4 4 4 3 2 2 1 2
3 3 3 3 3 4 4 4 3 4 4 4 5 5 5 5 6 6 6 4 4 4 5 4 3 3 4 4 5 6 6 6 7 5 5 5 5 5 4 4 3 3 3
2 3 3 3 4 4 4 5 4 4 4 4 5 5 5 5 6 5 6 4 4 4 5 5 5 4 4 5 4 4 4 4 5 5 5 5 4 4 5 5 4 3 1
2 2 3 3 4 5 5 6 4 4 4 4 4 5 5 5 6 7 6 4 4 5 4 5 6 6 6 6 5 4 3 3 3 4 4 4 4 4 5 3 3 2 2
3 3 3 3 4 4 5 4 3 4 4 4 4 4 5 4 5 7 7 4 5 4 3 4 5 5 5 7 6 5 5 4 2 2 2 1 1 2 5 5 4 4 2
3 2 3 3 4 4 4 3 3 4 4 4 3 3 4 5 5 6 7 5 5 4 4 3 3 5 5 5 6 5 6 4 3 3 2 1 0 1 2 3 3 4 3
2 2 3 3 3 3 3 3 3 3 3 4 3 3 3 3 5 6 7 7 6 5 4 3 3 4 5 5 4 4 5 4 3 2 2 1 1 2 2 3 4 4 4
2 3 3 2 2 2 3 3 3 3 3 4 4 4 3 2 2 4 6 6 7 4 3 4 4 4 4 3 3 4 4 3 3 3 3 3 3 3 2 2 2 3 2
3 3 2 2 2 2 2 3 3 4 4 4 4 4 3 3 3 3 3 3 4 3 2 2 3 3 2 1 1 2 2 3 3 3 3 2 1 1 1 1 1 2 1
2 2 2 3 3 2 3 3 3 4 5 5 5 5 5 5 5 6 5 4 4 4 3 1 1 1 1 1 1 1 1 2 3 3 3 2 2 2 2 1 1 1 2
2 2 2 2 2 2 2 2 0 1 2 4 5 5 4 5 4 5 5 5 5 6 4 2 2 2 2 3 3 2 2 3 3 3 3 3 2 2 2 2 1 2 3
2 2 2 2 2 2 2 2 2 1 2 1 1 3 4 4 4 4 4 4 4 6 3 3 3 3 3 3 3 3 3 3 3 3 3 3 3 3 2 2 2 2 2
2 2 2 2 2 2 2 2 2 2 1 1 1 1 3 3 3 4 5 5 2 2 3 3 4 3 3 3 3 3 3 3 3 3 3 3 3 3 3 2 2 2 2
2 2 1 1 1 1 1 2 2 2 2 1 1 1 1 2 2 3 4 2 3 3 3 3 4 3 3 3 4 3 3 3 3 3 3 3 3 3 3 3 3 3 3
1 2 1 1 0 0 1 1 1 2 2 2 2 1 2 2 2 1 2 2 2 3 3 3 3 3 3 3 4 4 4 3 3 3 3 3 3 3 3 3 3 3 3
1 1 0 0 0 0 1 1 1 1 1 1 1 1 3 3 2 2 2 2 2 3 3 3 3 3 3 3 3 4 5 4 4 4 4 3 3 3 3 3 3 3 3
1 1 1 1 1 1 1 1 2 2 2 1 1 1 3 2 2 2 2 2 2 2 2 2 2 2 2 3 3 3 4 4 4 4 3 3 3 3 3 3 3 3 3
1 1 1 1 1 1 1 1 2 2 2 2 2 2 2 2 1 1 1 1 1 1 1 1 1 1 1 2 2 3 3 3 3 3 3 3 3 3 3 3 4 4 4
1 0 1 1 1 2 2 2 1 2 2 2 2 2 2 1 1 1 1 1 1 1 1 1 1 1 1 1 1 1 1 2 2 3 3 3 3 2 2 3 3 4 4
0 0 0 1 2 2 1 1 1 1 1 2 2 1 1 1 1 1 1 1 1 1 1 1 1 1 1 1 1 0 1 1 1 1 2 2 3 3 3 3 2 3 3
1 1 1 1 1 1 1 1 1 2 2 2 2 2 2 2 2 2 1 1 1 1 1 1 1 1 2 1 1 1 1 0 0 1 1 2 2 2 2 2 2 2 3
Wind_Direction
173 175 178 183 184 183 198 211 214 214 213 220 219 210 212 210 204 201 205 195 195 202 205 202 212 202 194 197 190 191 200 197 225 254 244 261 240 264 316 299 225 202 271
177 171 177 177 177 188 204 214 211 217 220 220 215 216 215 207 200 202 211 203 197 200 203 198 210 200 197 197 193 199 204 204 208 238 247 238 246 253 265 265 271 258 279
173 171 175 180 183 200 212 217 209 215 220 220 214 218 218 209 202 205 205 205 203 203 200 199 204 195 201 202 200 206 208 205 206 217 241 239 264 264 286 291 288 308 267
173 178 189 196 199 205 208 211 217 218 218 219 218 220 215 208 204 203 198 204 204 204 198 197 199 197 202 201 205 209 202 198 198 209 233 239 251 261 236 261 279 284 269
169 184 200 201 200 204 212 214 217 217 221 220 217 218 215 210 208 198 202 205 199 203 201 199 199 198 200 201 202 203 197 199 199 209 223 230 235 231 237 238 252 267 262
172 189 196 195 193 197 216 226 224 224 226 220 219 219 222 227 206 196 197 206 200 200 204 206 204 208 212 212 209 202 196 198 203 209 222 231 238 234 225 221 227 241 251
182 193 194 196 204 208 214 215 224 233 231 228 226 221 226 226 207 197 192 199 204 211 212 211 211 207 214 223 215 209 210 209 201 202 217 230 234 224 213 214 214 223 243
192 208 211 208 217 219 217 224 229 235 236 235 230 225 222 228 211 198 188 196 204 212 215 215 213 216 214 207 201 203 212 217 211 210 220 233 235 224 211 211 212 218 260
224 237 239 228 226 221 222 230 235 228 232 235 227 219 220 225 205 195 186 195 205 216 221 219 216 220 217 197 192 201 216 231 212 204 218 233 229 209 188 174 174 193 242
242 245 248 245 242 237 234 237 239 231 234 223 225 222 218 214 194 189 187 192 202 209 216 224 220 216 212 194 197 198 212 226 215 203 218 242 220 187 176 190 194 197 208
251 258 256 250 247 242 238 237 236 231 229 225 220 221 221 215 205 198 192 196 204 207 213 223 225 201 195 192 196 207 212 204 194 191 200 208 188 194 198 202 203 200 204
241 257 268 264 257 252 234 241 233 222 221 219 212 223 231 220 211 208 203 202 199 203 213 219 215 190 183 183 193 207 192 176 174 175 195 221 223 230 237 225 216 216 219
237 248 256 262 265 253 231 234 240 227 226 228 219 226 235 228 220 205 199 198 197 199 203 198 188 174 172 178 186 181 173 178 180 188 211 226 234 236 223 218 223 229 233
236 240 236 234 245 242 235 225 226 232 234 230 224 225 225 220 214 198 189 185 181 184 185 157 140 137 145 175 183 181 183 186 192 204 217 221 210 200 201 202 213 215 221
238 237 239 234 226 234 238 232 228 232 228 228 227 212 203 216 220 201 186 193 192 189 167 155 150 140 162 197 224 212 195 194 206 213 208 205 198 201 218 218 208 204 218
232 246 246 241 228 220 228 256 276 234 251 226 218 205 210 208 193 187 191 190 181 168 155 175 202 202 207 217 222 225 218 220 222 215 210 207 207 212 218 217 211 214 229
230 243 245 241 230 222 218 218 252 342 21 356 224 193 185 170 161 167 168 163 161 154 163 195 214 219 223 225 226 226 227 228 218 210 205 208 210 212 214 215 212 223 241
240 243 241 243 240 236 224 217 217 215 230 331 6 191 176 161 163 166 152 124 123 159 198 211 221 228 230 225 222 224 226 219 214 212 212 211 206 203 207 213 212 216 235
268 257 240 241 238 223 216 209 205 201 192 170 83 44 117 130 128 150 149 154 188 207 219 229 230 228 233 229 223 218 213 209 209 208 211 211 213 207 206 211 215 213 219
274 267 255 242 232 202 169 173 184 192 191 172 173 172 137 121 125 145 167 190 202 220 224 230 236 233 231 228 220 212 208 210 210 210 214 212 210 214 214 214 216 220 229
277 275 272 197 170 141 157 175 178 176 182 179 181 167 155 161 173 178 192 212 215 225 234 236 237 237 230 222 219 211 207 212 211 209 209 211 208 214 219 216 220 227 236
264 246 214 194 172 156 166 165 156 153 154 157 126 116 146 147 158 166 198 224 231 234 236 238 246 241 228 222 216 212 214 215 212 209 210 210 209 215 218 219 224 230 235
259 213 182 178 166 156 150 138 136 139 145 144 137 128 137 155 159 171 208 230 226 225 221 216 234 249 245 224 209 205 214 220 217 208 203 204 209 216 218 221 225 231 235
276 226 190 184 156 140 140 136 135 140 144 139 133 134 148 170 182 194 213 226 219 207 184 191 201 196 164 138 140 185 212 225 211 202 200 200 205 211 213 222 232 236 238
296 105 129 151 142 135 137 139 139 143 149 157 156 158 164 175 188 193 193 162 139 118 94 112 150 151 137 130 119 145 241 228 217 200 193 196 200 204 213 228 237 244 239
71 87 93 120 148 166 171 177 185 178 175 176 176 182 185 188 189 177 162 148 141 132 114 121 123 108 102 89 56 32 21 15 47 183 182 179 189 207 215 225 233 238 242
Height
1518 1521 1522 1523 1525 1526 1527 1528 1529 1530 1531 1532 1532 1532 1532 1533 1533 1534 1534 1535 1535 1536 1537 1537 1538 1538 1539 1539 1539 1539 1540 1540 1539 1539 1539 1539 1539 1538 1537 1537 1536 1535 1534
1515 1517 1519 1520 1521 1523 1524 1525 1526 1527 1527 1528 1529 1529 1529 1530 1530 1531 1531 1532 1532 1533 1534 1534 1535 1535 1536 1536 1537 1537 1537 1537 1536 1535 1536 1536 1536 1535 1534 1534 1533 1532 1532
1512 1514 1516 1517 1518 1519 1521 1522 1522 1523 1523 1524 1525 1526 1526 1526 1527 1528 1528 1529 1529 1530 1531 1531 1532 1532 1533 1533 1533 1534 1533 1533 1533 1533 1532 1533 1532 1532 1531 1531 1530 1529 1529
1509 1511 1512 1513 1515 1516 1517 1518 1518 1519 1519 1519 1520 1521 1522 1523 1524 1525 1525 1526 1526 1527 1527 1528 1529 1529 1529 1530 1530 1530 1530 1530 1529 1529 1529 1529 1529 1528 1528 1528 1527 1526 1526
1506 1508 1509 1510 1512 1513 1514 1515 1514 1514 1515 1515 1515 1516 1517 1518 1520 1521 1522 1523 1523 1524 1524 1524 1525 1525 1526 1526 1526 1526 1526 1526 1526 1525 1525 1525 1525 1525 1524 1524 1524 1523 1523
1503 1505 1506 1508 1508 1509 1510 1511 1511 1511 1511 1511 1512 1512 1513 1514 1516 1517 1519 1519 1520 1520 1520 1521 1521 1522 1522 1522 1522 1522 1523 1523 1522 1522 1522 1521 1521 1521 1521 1521 1520 1520 1519
1502 1503 1503 1504 1505 1506 1506 1507 1507 1507 1507 1507 1508 1508 1509 1510 1511 1513 1514 1515 1516 1517 1517 1517 1517 1518 1518 1518 1519 1519 1519 1518 1519 1519 1518 1518 1518 1517 1517 1516 1516 1516 1516
1499 1500 1501 1501 1502 1502 1502 1503 1503 1503 1504 1504 1504 1505 1505 1506 1507 1508 1509 1510 1511 1512 1513 1513 1514 1514 1515 1515 1515 1515 1515 1515 1514 1514 1514 1514 1514 1514 1513 1513 1513 1513 1513
1496 1497 1497 1498 1498 1498 1498 1498 1499 1499 1499 1499 1500 1500 1501 1502 1503 1504 1505 1506 1506 1507 1509 1509 1510 1510 1511 1511 1511 1510 1510 1510 1510 1510 1510 1510 1510 1510 1510 1510 1509 1509 1509
1493 1493 1494 1495 1495 1494 1494 1494 1495 1495 1495 1495 1496 1496 1497 1498 1499 1500 1501 1501 1502 1502 1503 1504 1505 1506 1506 1506 1507 1506 1506 1507 1507 1506 1507 1506 1506 1506 1506 1506 1506 1506 1506
1490 1490 1490 1491 1491 1491 1490 1490 1491 1491 1491 1491 1492 1492 1493 1494 1494 1496 1497 1497 1498 1498 1499 1500 1501 1501 1502 1502 1502 1502 1502 1503 1503 1503 1503 1503 1502 1502 1502 1502 1502 1502 1503
1486 1486 1486 1487 1487 1487 1487 1487 1487 1487 1487 1487 1487 1488 1489 1489 1490 1491 1492 1493 1494 1494 1495 1496 1496 1497 1497 1497 1498 1498 1498 1499 1499 1499 1499 1499 1499 1499 1499 1499 1499 1499 1499
1483 1482 1482 1483 1483 1483 1483 1483 1483 1483 1483 1483 1483 1483 1484 1485 1486 1487 1488 1489 1490 1490 1491 1491 1492 1492 1493 1493 1493 1494 1494 1495 1495 1495 1495 1495 1495 1495 1495 1495 1495 1496 1496
1478 1478 1478 1479 1479 1479 1479 1478 1478 1478 1479 1479 1479 1479 1479 1480 1480 1482 1483 1484 1485 1486 1487 1487 1488 1488 1489 1489 1489 1489 1490 1490 1490 1490 1491 1491 1491 1491 1491 1492 1492 1492 1492
1475 1475 1474 1475 1474 1474 1474 1474 1473 1473 1474 1474 1474 1474 1475 1475 1477 1477 1478 1480 1481 1482 1483 1483 1484 1484 1484 1485 1485 1485 1485 1486 1486 1486 1487 1487 1487 1488 1488 1489 1489 1489 1488
1471 1471 1470 1470 1470 1470 1470 1470 1469 1470 1470 1470 1471 1471 1471 1472 1473 1474 1475 1477 1477 1478 1479 1479 1479 1479 1480 1480 1481 1481 1481 1481 1482 1482 1482 1483 1483 1484 1485 1485 1485 1485 1485
1468 1468 1467 1467 1466 1466 1465 1465 1465 1465 1466 1466 1467 1468 1468 1469 1470 1470 1471 1472 1473 1474 1474 1474 1475 1475 1475 1476 1476 1476 1476 1477 1478 1478 1478 1479 1480 1480 1481 1481 1481 1481 1481
1465 1464 1464 1464 1463 1462 1461 1461 1462 1461 1462 1462 1463 1464 1465 1466 1466 1467 1467 1468 1468 1469 1469 1470 1470 1471 1471 1471 1471 1472 1472 1473 1474 1474 1474 1475 1475 1476 1476 1477 1478 1478 1478
1462 1461 1461 1461 1460 1459 1459 1459 1459 1459 1459 1459 1460 1461 1462 1463 1463 1464 1464 1464 1465 1465 1465 1466 1466 1466 1466 1467 1467 1468 1468 1469 1469 1470 1471 1471 1472 1473 1472 1473 1474 1474 1475
1459 1459 1459 1458 1458 1457 1457 1457 1457 1457 1457 1457 1457 1458 1459 1460 1460 1461 1461 1462 1462 1462 1462 1462 1462 1462 1462 1462 1463 1463 1464 1464 1465 1466 1467 1468 1469 1469 1469 1470 1471 1471 1471
1456 1456 1456 1456 1455 1455 1455 1455 1455 1455 1455 1455 1455 1456 1457 1457 1458 1458 1459 1459 1459 1459 1459 1459 1458 1458 1458 1458 1458 1459 1460 1460 1461 1462 1463 1464 1465 1465 1466 1467 1467 1468 1468
1454 1454 1454 1454 1453 1453 1453 1453 1453 1453 1454 1454 1454 1455 1455 1456 1456 1456 1457 1457 1457 1457 1457 1456 1455 1454 1454 1454 1455 1455 1456 1457 1457 1458 1459 1460 1461 1462 1462 1463 1464 1464 1465
1453 1452 1452 1451 1451 1451 1452 1452 1452 1452 1452 1453 1453 1453 1454 1454 1454 1455 1456 1456 1456 1455 1455 1454 1453 1452 1452 1452 1452 1453 1453 1453 1454 1454 1455 1456 1457 1458 1458 1459 1460 1460 1461
1451 1450 1450 1450 1450 1450 1450 1450 1450 1451 1451 1452 1452 1452 1453 1453 1454 1454 1454 1454 1454 1454 1453 1452 1452 1451 1451 1450 1450 1451 1451 1451 1451 1451 1452 1453 1453 1454 1455 1455 1456 1456 1457
1449 1449 1449 1449 1449 1449 1449 1450 1450 1450 1451 1451 1451 1452 1452 1453 1453 1453 1453 1453 1452 1452 1452 1451 1450 1450 1449 1449 1449 1449 1449 1449 1449 1449 1449 1450 1450 1450 1451 1451 1452 1452 1453
1449 1449 1448 1448 1449 1449 1449 1449 1449 1450 1450 1450 1451 1451 1451 1451 1451 1451 1451 1451 1451 1450 1450 1449 1449 1448 1448 1447 1447 1447 1446 1446 1446 1446 1446 1446 1446 1447 1447 1447 1448 1448 1449